APG912 RPVE-RPLL

Flight info

Callsign APG912
Flight time 0h 36m
Altitude 25000
Route MINOR8A MINOR B473 LAIYA LAIYA3R
Aircraft A320/M-SDE3FGHIRWY/LB1

Departure

Time 2026-05-07 04:31
Airport Godofredo P. Ramos Airport (RPVE)

Arrival

Time 2026-05-07 05:07
Airport Ninoy Aquino International Airport (RPLL)
Time Latitude Longitude Altitude Speed Heading
2026-05-07 04:19 11.92707 121.96438 27 ft 0 kts 153°
2026-05-07 04:22 11.92708 121.96438 26 ft 0 kts 153°
2026-05-07 04:23 11.92709 121.96437 34 ft 2 kts 153°
2026-05-07 04:23 11.92724 121.96430 31 ft 2 kts 145°
2026-05-07 04:24 11.92734 121.96417 26 ft 2 kts 152°
2026-05-07 04:24 11.92747 121.96420 32 ft 2 kts 235°
2026-05-07 04:24 11.92754 121.96430 30 ft 1 kts 241°
2026-05-07 04:24 11.92754 121.96431 26 ft 0 kts 241°
2026-05-07 04:26 11.92732 121.96389 26 ft 13 kts 241°
2026-05-07 04:26 11.92675 121.96278 26 ft 22 kts 245°
2026-05-07 04:26 11.92673 121.96187 26 ft 12 kts 328°
2026-05-07 04:26 11.92744 121.96151 26 ft 11 kts 333°
2026-05-07 04:27 11.92801 121.96112 29 ft 9 kts 305°
2026-05-07 04:27 11.92786 121.96065 26 ft 9 kts 247°
2026-05-07 04:27 11.92730 121.95945 27 ft 22 kts 243°
2026-05-07 04:27 11.92659 121.95805 26 ft 23 kts 242°
2026-05-07 04:28 11.92590 121.95667 28 ft 21 kts 244°
2026-05-07 04:28 11.92525 121.95535 25 ft 20 kts 244°
2026-05-07 04:28 11.92465 121.95415 25 ft 18 kts 243°
2026-05-07 04:28 11.92407 121.95303 25 ft 17 kts 243°
2026-05-07 04:29 11.92357 121.95202 25 ft 15 kts 243°
2026-05-07 04:29 11.92312 121.95113 29 ft 13 kts 239°
2026-05-07 04:29 11.92254 121.95052 26 ft 11 kts 221°
2026-05-07 04:29 11.92267 121.95022 27 ft 5 kts 15°
2026-05-07 04:30 11.92279 121.95038 27 ft 0 kts 64°
2026-05-07 04:30 11.92282 121.95044 27 ft 11 kts 64°
2026-05-07 04:30 11.92441 121.95367 25 ft 89 kts 63°
2026-05-07 04:30 11.92815 121.96121 41 ft 145 kts 63°
2026-05-07 04:31 11.93287 121.97055 645 ft 149 kts 61°
2026-05-07 04:31 11.93801 121.97999 1298 ft 157 kts 62°
2026-05-07 04:31 11.94338 121.99055 1646 ft 178 kts 63°
2026-05-07 04:31 11.94935 122.00265 1939 ft 203 kts 64°
2026-05-07 04:32 11.95591 122.01605 2516 ft 215 kts 64°
2026-05-07 04:32 11.96459 122.02874 3246 ft 224 kts 43°
2026-05-07 04:32 11.97852 122.03749 3675 ft 249 kts 29°
2026-05-07 04:32 11.99448 122.04557 4310 ft 261 kts 28°
2026-05-07 04:33 12.01096 122.05377 5106 ft 266 kts 28°
2026-05-07 04:33 12.02776 122.06213 5898 ft 271 kts 28°
2026-05-07 04:33 12.04461 122.07058 6668 ft 275 kts 28°
2026-05-07 04:33 12.06189 122.07928 7418 ft 279 kts 28°
2026-05-07 04:34 12.07942 122.08812 8173 ft 283 kts 28°
2026-05-07 04:34 12.09722 122.09709 8940 ft 287 kts 28°
2026-05-07 04:34 12.11524 122.10620 9709 ft 291 kts 28°
2026-05-07 04:34 12.13356 122.11550 10293 ft 300 kts 28°
2026-05-07 04:35 12.15300 122.12538 10485 ft 323 kts 28°
2026-05-07 04:35 12.17361 122.13587 10907 ft 336 kts 28°
2026-05-07 04:35 12.19467 122.14656 11521 ft 341 kts 28°
2026-05-07 04:35 12.21600 122.15738 12182 ft 344 kts 28°
2026-05-07 04:36 12.23761 122.16830 12839 ft 348 kts 28°
2026-05-07 04:36 12.25940 122.17929 13479 ft 351 kts 28°
2026-05-07 04:36 12.28145 122.19044 14053 ft 355 kts 28°
2026-05-07 04:36 12.30368 122.20171 14611 ft 358 kts 28°
2026-05-07 04:37 12.32634 122.21247 15149 ft 362 kts 21°
2026-05-07 04:37 12.35108 122.21812 15680 ft 368 kts
2026-05-07 04:37 12.37676 122.21715 16209 ft 373 kts 351°
2026-05-07 04:37 12.40175 122.20948 16740 ft 379 kts 336°
2026-05-07 04:38 12.42455 122.19565 17261 ft 383 kts 327°
2026-05-07 04:38 12.44671 122.18024 17795 ft 386 kts 327°
2026-05-07 04:38 12.46897 122.16471 18297 ft 389 kts 327°
2026-05-07 04:38 12.49147 122.14904 18740 ft 392 kts 327°
2026-05-07 04:39 12.51411 122.13330 19186 ft 395 kts 327°
2026-05-07 04:39 12.53692 122.11747 19643 ft 397 kts 327°
2026-05-07 04:39 12.55984 122.10156 20103 ft 400 kts 327°
2026-05-07 04:39 12.58291 122.08553 20569 ft 402 kts 327°
2026-05-07 04:40 12.60581 122.06961 21013 ft 404 kts 327°
2026-05-07 04:40 12.62915 122.05336 21437 ft 407 kts 327°
2026-05-07 04:40 12.65267 122.03697 21853 ft 410 kts 327°
2026-05-07 04:40 12.67629 122.02053 22266 ft 412 kts 327°
2026-05-07 04:41 12.70010 122.00398 22687 ft 415 kts 327°
2026-05-07 04:41 12.72407 121.98729 23099 ft 417 kts 327°
2026-05-07 04:41 12.74730 121.97112 23484 ft 420 kts 327°
2026-05-07 04:41 12.77152 121.95426 23816 ft 422 kts 327°
2026-05-07 04:42 12.79585 121.93731 24159 ft 424 kts 327°
2026-05-07 04:42 12.82033 121.92023 24514 ft 426 kts 327°
2026-05-07 04:42 12.84484 121.90313 24788 ft 427 kts 327°
2026-05-07 04:42 12.86933 121.88610 24868 ft 421 kts 327°
2026-05-07 04:43 12.89314 121.86954 24887 ft 410 kts 327°
2026-05-07 04:43 12.91666 121.85317 24888 ft 407 kts 326°
2026-05-07 04:43 12.94004 121.83688 24887 ft 405 kts 326°
2026-05-07 04:43 12.96333 121.82063 24890 ft 405 kts 326°
2026-05-07 04:44 12.97879 121.80984 24888 ft 405 kts 326°
2026-05-07 04:44 13.00205 121.79359 24890 ft 405 kts 326°
2026-05-07 04:44 13.03314 121.77191 24891 ft 404 kts 326°
2026-05-07 04:44 13.04856 121.76116 24890 ft 404 kts 326°
2026-05-07 04:45 13.07183 121.74491 24888 ft 404 kts 326°
2026-05-07 04:45 13.09502 121.72866 24889 ft 404 kts 326°
2026-05-07 04:45 13.12574 121.70715 24887 ft 404 kts 326°
2026-05-07 04:45 13.14139 121.69621 24885 ft 404 kts 326°
2026-05-07 04:46 13.16461 121.68001 24885 ft 403 kts 326°
2026-05-07 04:46 13.18778 121.66382 24881 ft 403 kts 326°
2026-05-07 04:46 13.21098 121.64763 24884 ft 403 kts 326°
2026-05-07 04:46 13.23422 121.63140 24881 ft 403 kts 326°
2026-05-07 04:47 13.25714 121.61536 24880 ft 403 kts 326°
2026-05-07 04:47 13.28032 121.59910 24879 ft 404 kts 326°
2026-05-07 04:47 13.30349 121.58287 24885 ft 404 kts 326°
2026-05-07 04:47 13.32676 121.56657 24891 ft 404 kts 326°
2026-05-07 04:48 13.35004 121.55025 24891 ft 404 kts 326°
2026-05-07 04:48 13.37322 121.53399 24889 ft 404 kts 326°
2026-05-07 04:48 13.39648 121.51771 24888 ft 404 kts 326°
2026-05-07 04:48 13.41985 121.50136 24893 ft 408 kts 326°
2026-05-07 04:49 13.44345 121.48484 24794 ft 409 kts 326°
2026-05-07 04:49 13.46684 121.46847 24021 ft 403 kts 326°
2026-05-07 04:49 13.48987 121.45232 23170 ft 399 kts 326°
2026-05-07 04:49 13.51232 121.43656 22589 ft 391 kts 326°
2026-05-07 04:50 13.53469 121.42081 22103 ft 389 kts 326°
2026-05-07 04:50 13.55696 121.40514 21780 ft 382 kts 326°
2026-05-07 04:50 13.57833 121.39008 21553 ft 370 kts 326°
2026-05-07 04:50 13.59919 121.37496 20901 ft 364 kts 325°
2026-05-07 04:51 13.61955 121.35981 20284 ft 358 kts 324°
2026-05-07 04:51 13.63936 121.34490 19828 ft 348 kts 324°
2026-05-07 04:51 13.65775 121.33104 19422 ft 340 kts 324°
2026-05-07 04:51 13.67657 121.31687 19018 ft 332 kts 324°
2026-05-07 04:52 13.69502 121.30300 18620 ft 324 kts 325°
2026-05-07 04:52 13.71316 121.28945 18228 ft 323 kts 325°
2026-05-07 04:52 13.73151 121.27576 17798 ft 326 kts 325°
2026-05-07 04:52 13.74970 121.26220 17404 ft 327 kts 325°
2026-05-07 04:53 13.76817 121.24842 17010 ft 328 kts 325°
2026-05-07 04:53 13.78664 121.23463 16624 ft 328 kts 325°
2026-05-07 04:53 13.80517 121.22078 16233 ft 329 kts 325°
2026-05-07 04:53 13.82371 121.20693 15846 ft 330 kts 325°
2026-05-07 04:54 13.84235 121.19303 15462 ft 331 kts 325°
2026-05-07 04:54 13.86110 121.17907 15069 ft 333 kts 325°
2026-05-07 04:54 13.87986 121.16509 14783 ft 331 kts 325°
2026-05-07 04:54 13.89845 121.15123 14344 ft 328 kts 326°
2026-05-07 04:55 13.91674 121.13757 13914 ft 321 kts 325°
2026-05-07 04:55 13.93451 121.12427 13508 ft 312 kts 326°
2026-05-07 04:55 13.95188 121.11126 13132 ft 304 kts 325°
2026-05-07 04:55 13.96871 121.09865 12773 ft 294 kts 326°
2026-05-07 04:56 13.98509 121.08639 12423 ft 290 kts 326°
2026-05-07 04:56 14.00140 121.07421 12073 ft 290 kts 325°
2026-05-07 04:56 14.01775 121.06201 11718 ft 291 kts 326°
2026-05-07 04:56 14.03420 121.04971 11354 ft 292 kts 325°
2026-05-07 04:57 14.05068 121.03738 10991 ft 293 kts 325°
2026-05-07 04:57 14.06724 121.02501 10653 ft 293 kts 325°
2026-05-07 04:57 14.08365 121.01274 10360 ft 292 kts 325°
2026-05-07 04:57 14.09996 121.00050 9970 ft 295 kts 325°
2026-05-07 04:58 14.11683 120.98783 9555 ft 298 kts 325°
2026-05-07 04:58 14.13362 120.97526 9176 ft 299 kts 325°
2026-05-07 04:58 14.15027 120.96281 9044 ft 291 kts 325°
2026-05-07 04:58 14.16625 120.95084 8857 ft 285 kts 325°
2026-05-07 04:59 14.18277 120.94006 8632 ft 282 kts 332°
2026-05-07 04:59 14.19990 120.93003 8293 ft 282 kts 332°
2026-05-07 04:59 14.21678 120.92007 7922 ft 278 kts 332°
2026-05-07 04:59 14.23350 120.91018 7371 ft 278 kts 332°
2026-05-07 05:00 14.25023 120.90027 6944 ft 273 kts 332°
2026-05-07 05:00 14.26625 120.89077 6771 ft 259 kts 332°
2026-05-07 05:00 14.28146 120.88175 6630 ft 247 kts 332°
2026-05-07 05:00 14.29655 120.87293 6250 ft 253 kts 332°
2026-05-07 05:01 14.31200 120.86400 5857 ft 253 kts 332°
2026-05-07 05:01 14.32724 120.85523 5505 ft 249 kts 332°
2026-05-07 05:01 14.34168 120.84691 5183 ft 245 kts 332°
2026-05-07 05:01 14.35643 120.83838 4849 ft 241 kts 332°
2026-05-07 05:02 14.37109 120.83065 4512 ft 233 kts 345°
2026-05-07 05:02 14.38679 120.82898 4152 ft 225 kts 11°
2026-05-07 05:02 14.40118 120.83425 3621 ft 215 kts 38°
2026-05-07 05:02 14.41122 120.84457 3354 ft 193 kts 59°
2026-05-07 05:03 14.41760 120.85584 3101 ft 178 kts 62°
2026-05-07 05:03 14.42353 120.86648 2899 ft 164 kts 62°
2026-05-07 05:03 14.42902 120.87634 2680 ft 150 kts 62°
2026-05-07 05:03 14.43401 120.88533 2451 ft 143 kts 63°
2026-05-07 05:04 14.43895 120.89420 2293 ft 142 kts 62°
2026-05-07 05:04 14.44384 120.90300 2110 ft 141 kts 63°
2026-05-07 05:04 14.44869 120.91172 1932 ft 140 kts 63°
2026-05-07 05:04 14.45353 120.92042 1752 ft 139 kts 63°
2026-05-07 05:05 14.45834 120.92907 1586 ft 139 kts 63°
2026-05-07 05:05 14.46316 120.93773 1399 ft 138 kts 63°
2026-05-07 05:05 14.46794 120.94632 1226 ft 139 kts 63°
2026-05-07 05:05 14.47274 120.95495 1058 ft 139 kts 63°
2026-05-07 05:06 14.47754 120.96359 883 ft 138 kts 63°
2026-05-07 05:06 14.48231 120.97216 691 ft 139 kts 63°
2026-05-07 05:06 14.48712 120.98082 546 ft 138 kts 63°
2026-05-07 05:06 14.49191 120.98947 411 ft 140 kts 64°
2026-05-07 05:07 14.49677 120.99813 156 ft 138 kts 65°
2026-05-07 05:07 14.50128 121.00631 64 ft 115 kts 59°
2026-05-07 05:07 14.50386 121.01092 68 ft 46 kts 61°
2026-05-07 05:07 14.50537 121.01362 67 ft 42 kts 60°
2026-05-07 05:08 14.50669 121.01598 64 ft 32 kts 59°
2026-05-07 05:08 14.50780 121.01729 62 ft 19 kts 38°
2026-05-07 05:08 14.50884 121.01781 63 ft 10 kts 332°
2026-05-07 05:08 14.50896 121.01725 68 ft 8 kts 254°
2026-05-07 05:09 14.50871 121.01682 66 ft 6 kts 239°
2026-05-07 05:09 14.50845 121.01637 59 ft 13 kts 240°
2026-05-07 05:09 14.50776 121.01513 64 ft 23 kts 240°
2026-05-07 05:09 14.50698 121.01371 64 ft 21 kts 244°
2026-05-07 05:10 14.50744 121.01319 66 ft 10 kts 23°
2026-05-07 05:10 14.50783 121.01373 65 ft 7 kts 50°
2026-05-07 05:10 14.50818 121.01363 64 ft 5 kts 328°
2026-05-07 05:10 14.50844 121.01347 65 ft 4 kts 329°
2026-05-07 05:11 14.50864 121.01336 63 ft 3 kts 330°
2026-05-07 05:11 14.50865 121.01335 63 ft 0 kts 330°